Regional Weather Roundup
Issued by NWS State College, PA

Home | Current Version | Previous Version | Text Only | Print | Product List | Glossary Off
Versions: 1 2 3 4 5 6 7 8 9 10 11 12 13 14 15 16 17 18 19 20 21 22 23 24 25 26 27 28 29 30 31 32 33 34 35 36 37 38 39 40 41 42 43 44 45 46 47 48 49 50

602
ASUS41 KCTP 080910
RWRCTP

REGIONAL WEATHER ROUNDUP
NATIONAL WEATHER SERVICE STATE COLLEGE PA
400 AM EST MON FEB 08 2016

Note: "fair" indicates few or no clouds below 12,000 feet with no
significant weather and/or obstructions to visibility.

* = STATION THAT DOES NOT REPORT PRECIPITATION /E.G. RAIN...SNOW...ETC/
    THUNDER OR FOG.

PAZ002>004-007>009-013>016-020>023-029>032-081000-
WESTERN PENNSYLVANIA

CITY           SKY/WX    TMP DP  RH WIND       PRES   REMARKS
ERIE           PTCLDY    40  23  50 S12       29.70F
MEADVILLE      MOCLDY    37  23  56 SE3       29.68F
FRANKLIN*      MOCLDY    34  21  60 SE6       29.72F
NEW CASTLE     FAIR      36  23  59 VRB3      29.71F
BEAVER COUNTY  NOT AVBL
BUTLER*        CLOUDY    32  23  69 SE6       29.74F
PITTSBURGH INT CLOUDY    34  22  61 SE3       29.71F
PITTSBURGH     NOT AVBL
INDIANA*       PTCLDY    27  25  93 CALM      29.76F
LATROBE        CLEAR     28  25  86 CALM      29.74F
WASHINGTON CO* PTCLDY    27  21  80 CALM      29.71F
$$

PAZ004>006-010>012-017>019-024>028-033>037-041-042-045-046-049>053-081000-
CENTRAL PENNSYLVANIA

CITY           SKY/WX    TMP DP  RH WIND       PRES   REMARKS
BRADFORD       CLEAR     27  21  78 CALM      29.71F
DUBOIS         PTCLDY    32  22  66 E7        29.71F
CLEARFIELD     PTCLDY    26  22  84 NE6       29.75F
JOHNSTOWN      CLEAR     32  19  58 SW5       29.71F
ALTOONA        CLEAR     22  19  89 CALM      29.76F
STATE COLLEGE  PTCLDY    26  22  85 CALM      29.76F
WILLIAMSPORT   CLOUDY    25  22  88 CALM      29.80F
SELINSGROVE    CLOUDY    22  20  92 CALM      29.80F
FT INDIANTOWN  PTCLDY    33  20  60 NE2       29.77F
CAPITAL CITY   CLOUDY    27  21  78 W7        29.79F
HARRISBURG     MOCLDY    31  24  75 NW14      29.78F
YORK           CLOUDY    25  21  85 W3        29.77F
$$

PAZ038>040-043-044-047-048-054-055-060>062-067>071-081000-
EASTERN PENNSYLVANIA

CITY           SKY/WX    TMP DP  RH WIND       PRES   REMARKS
SCRANTON       CLOUDY    33  21  61 NE6       29.76F
MOUNT POCONO   CLOUDY    29  19  66 NE16      29.71F
ALLENTOWN      CLOUDY    36  21  54 NE12      29.76F
QUAKERTOWN*      N/A     36  21  55 NE7       29.74F
READING        PTCLDY    32  19  58 CALM      29.75F
LANCASTER      MOCLDY    35  21  56 NE8       29.75F
COATESVILLE    MOSUNNY   34  21  60 N8        29.73F
POTTSTOWN      CLOUDY    35  20  54 N8        29.75F
BLUE BELL        N/A     36  21  55 NE5       29.72F
DOYLESTOWN     CLOUDY    34  20  56 N8        29.72F
WILLOW GROVE   NOT AVBL
NORTH PHILA    CLOUDY    38  22  52 NE15      29.73F
PHILADELPHIA   CLOUDY    39  20  46 NE21G28   29.72F
$$




USA.gov is the U.S. government's official web portal to all federal, state and local government web resources and services.